Time,TemperatureF,DewpointF,PressureIn,WindDirection,WindDirectionDegrees,WindSpeedMPH,WindSpeedGustMPH,Humidity,HourlyPrecipIn,Conditions,Clouds,dailyrainin,SoftwareType,DateUTC
2013-11-28 07:51:00,69.4,57.9,28.92,NE,45,0.0,2.0,67,0.00,,,0.00,meteohub,2013-11-28 17:51:00,
2013-11-28 07:56:00,72.3,59.9,28.93,NE,45,0.0,2.0,65,0.00,,,0.00,meteohub,2013-11-28 17:56:00,
2013-11-28 08:01:00,74.8,61.3,28.93,North,0,0.0,1.0,63,0.00,,,0.00,meteohub,2013-11-28 18:01:00,
2013-11-28 08:06:00,76.6,62.2,28.92,NE,45,0.0,0.0,61,0.00,,,0.00,meteohub,2013-11-28 18:06:00,
2013-11-28 08:11:00,78.8,63.3,28.93,North,0,0.0,0.0,59,0.00,,,0.00,meteohub,2013-11-28 18:11:00,
2013-11-28 08:16:00,79.9,62.2,28.93,NE,45,0.0,2.0,55,0.00,,,0.00,meteohub,2013-11-28 18:16:00,
2013-11-28 08:21:00,81.0,61.7,28.93,North,0,2.0,2.0,52,0.00,,,0.00,meteohub,2013-11-28 18:21:00,
2013-11-28 08:26:00,81.3,60.3,28.93,North,0,1.0,3.0,49,0.00,,,0.00,meteohub,2013-11-28 18:26:00,
2013-11-28 08:31:00,81.3,59.2,28.93,North,0,1.0,3.0,47,0.00,,,0.00,meteohub,2013-11-28 18:31:00,
2013-11-28 08:36:00,81.1,59.0,28.93,North,0,1.0,4.0,47,0.00,,,0.00,meteohub,2013-11-28 18:36:00,
2013-11-28 08:41:00,82.2,59.4,28.93,North,0,3.0,4.0,46,0.00,,,0.00,meteohub,2013-11-28 18:41:00,
2013-11-28 08:46:00,81.7,59.5,28.93,North,0,3.0,4.0,47,0.00,,,0.00,meteohub,2013-11-28 18:46:00,
2013-11-28 08:51:00,82.0,60.4,28.93,NE,45,1.0,3.0,48,0.00,,,0.00,meteohub,2013-11-28 18:51:00,
2013-11-28 08:56:00,83.5,60.4,28.93,West,270,1.0,3.0,46,0.00,,,0.00,meteohub,2013-11-28 18:56:00,
2013-11-28 09:01:00,83.5,60.4,28.93,West,270,1.0,3.0,46,0.00,,,0.00,meteohub,2013-11-28 19:01:00,
2013-11-28 09:06:00,83.5,59.9,28.92,West,270,2.0,2.0,45,0.00,,,0.00,meteohub,2013-11-28 19:06:00,
2013-11-28 09:11:00,81.5,59.9,28.92,West,270,3.0,4.0,48,0.00,,,0.00,meteohub,2013-11-28 19:11:00,
2013-11-28 09:16:00,80.4,60.1,28.92,West,270,4.0,4.0,50,0.00,,,0.00,meteohub,2013-11-28 19:16:00,
2013-11-28 09:21:00,80.6,60.8,28.92,North,0,1.0,4.0,51,0.00,,,0.00,meteohub,2013-11-28 19:21:00,
2013-11-28 09:26:00,81.1,60.8,28.92,SW,225,1.0,4.0,50,0.00,,,0.00,meteohub,2013-11-28 19:26:00,
2013-11-28 09:31:00,80.2,60.4,28.92,West,270,2.0,4.0,51,0.00,,,0.00,meteohub,2013-11-28 19:31:00,
2013-11-28 09:36:00,78.8,59.2,28.91,West,270,1.0,4.0,51,0.00,,,0.00,meteohub,2013-11-28 19:36:00,
2013-11-28 09:41:00,77.4,59.4,28.91,East,90,1.0,3.0,54,0.00,,,0.00,meteohub,2013-11-28 19:41:00,
2013-11-28 09:46:00,77.0,59.5,28.91,West,270,1.0,2.0,55,0.00,,,0.00,meteohub,2013-11-28 19:46:00,
2013-11-28 09:51:00,77.9,60.4,28.91,South,180,2.0,2.0,55,0.00,,,0.00,meteohub,2013-11-28 19:51:00,
2013-11-28 09:56:00,79.3,60.3,28.91,SW,225,2.0,3.0,52,0.00,,,0.00,meteohub,2013-11-28 19:56:00,
2013-11-28 10:01:00,80.1,60.3,28.91,NW,315,2.0,4.0,51,0.00,,,0.00,meteohub,2013-11-28 20:01:00,
2013-11-28 10:06:00,80.2,59.4,28.90,West,270,2.0,5.0,49,0.00,,,0.00,meteohub,2013-11-28 20:06:00,
2013-11-28 10:11:00,78.3,58.6,28.90,SE,135,2.0,5.0,51,0.00,,,0.00,meteohub,2013-11-28 20:11:00,
2013-11-28 10:16:00,78.8,59.7,28.90,NW,315,0.0,4.0,52,0.00,,,0.00,meteohub,2013-11-28 20:16:00,
2013-11-28 10:21:00,78.6,59.0,28.90,West,270,2.0,4.0,51,0.00,,,0.00,meteohub,2013-11-28 20:21:00,
2013-11-28 10:26:00,80.1,59.7,28.88,SE,135,1.0,3.0,50,0.00,,,0.00,meteohub,2013-11-28 20:26:00,
2013-11-28 10:31:00,81.3,61.5,28.88,West,270,4.0,4.0,51,0.00,,,0.00,meteohub,2013-11-28 20:31:00,
2013-11-28 10:36:00,81.3,61.5,28.87,North,0,2.0,5.0,51,0.00,,,0.00,meteohub,2013-11-28 20:36:00,
2013-11-28 10:41:00,81.0,61.7,28.86,NW,315,8.0,8.0,52,0.00,,,0.00,meteohub,2013-11-28 20:41:00,
2013-11-28 10:46:00,80.8,62.1,28.85,SW,225,4.0,8.0,53,0.00,,,0.00,meteohub,2013-11-28 20:46:00,
2013-11-28 10:51:00,80.6,61.9,28.85,WNW,293,3.0,8.0,53,0.00,,,0.00,meteohub,2013-11-28 20:51:00,
2013-11-28 10:56:00,80.8,61.5,28.85,West,270,4.0,8.0,52,0.00,,,0.00,meteohub,2013-11-28 20:56:00,
2013-11-28 11:01:00,81.0,61.7,28.85,West,270,4.0,6.0,52,0.00,,,0.00,meteohub,2013-11-28 21:01:00,
2013-11-28 11:06:00,80.6,60.8,28.85,SW,225,6.0,8.0,51,0.00,,,0.00,meteohub,2013-11-28 21:06:00,
2013-11-28 11:11:00,80.6,61.3,28.85,NW,315,4.0,8.0,52,0.00,,,0.00,meteohub,2013-11-28 21:11:00,
2013-11-28 11:16:00,81.3,61.5,28.84,NW,315,4.0,8.0,51,0.00,,,0.00,meteohub,2013-11-28 21:16:00,
2013-11-28 11:21:00,81.3,61.5,28.83,NW,315,3.0,6.0,51,0.00,,,0.00,meteohub,2013-11-28 21:21:00,
2013-11-28 11:26:00,81.3,62.1,28.83,SW,225,4.0,7.0,52,0.00,,,0.00,meteohub,2013-11-28 21:26:00,
2013-11-28 11:31:00,81.7,61.9,28.82,NW,315,2.0,7.0,51,0.00,,,0.00,meteohub,2013-11-28 21:31:00,
2013-11-28 11:36:00,81.7,62.4,28.82,NW,315,5.0,5.0,52,0.00,,,0.00,meteohub,2013-11-28 21:36:00,
2013-11-28 11:41:00,81.0,61.7,28.82,NW,315,6.0,6.0,52,0.00,,,0.00,meteohub,2013-11-28 21:41:00,
2013-11-28 11:46:00,80.8,61.5,28.82,SW,225,3.0,6.0,52,0.00,,,0.00,meteohub,2013-11-28 21:46:00,
2013-11-28 11:51:00,80.8,62.1,28.82,West,270,4.0,7.0,53,0.00,,,0.00,meteohub,2013-11-28 21:51:00,
2013-11-28 11:56:00,81.1,62.4,28.82,NW,315,7.0,7.0,53,0.00,,,0.00,meteohub,2013-11-28 21:56:00,
2013-11-28 12:01:00,81.0,62.2,28.81,West,270,7.0,7.0,53,0.00,,,0.00,meteohub,2013-11-28 22:01:00,
2013-11-28 12:07:00,81.1,63.5,28.80,North,0,3.0,7.0,55,0.00,,,0.00,meteohub,2013-11-28 22:07:00,
2013-11-28 12:12:00,81.1,62.4,28.81,West,270,4.0,7.0,53,0.00,,,0.00,meteohub,2013-11-28 22:12:00,
2013-11-28 12:17:00,80.6,62.4,28.81,West,270,4.0,7.0,54,0.00,,,0.00,meteohub,2013-11-28 22:17:00,
2013-11-28 12:22:00,80.8,62.1,28.81,NW,315,3.0,6.0,53,0.00,,,0.00,meteohub,2013-11-28 22:22:00,
2013-11-28 12:27:00,81.0,62.8,28.81,West,270,4.0,6.0,54,0.00,,,0.00,meteohub,2013-11-28 22:27:00,
2013-11-28 12:32:00,81.3,62.6,28.80,SW,225,5.0,6.0,53,0.00,,,0.00,meteohub,2013-11-28 22:32:00,
2013-11-28 12:37:00,81.3,61.5,28.80,West,270,6.0,6.0,51,0.00,,,0.00,meteohub,2013-11-28 22:37:00,
2013-11-28 12:42:00,80.8,61.5,28.80,NW,315,4.0,6.0,52,0.00,,,0.00,meteohub,2013-11-28 22:42:00,
2013-11-28 12:47:00,80.8,62.1,28.79,West,270,4.0,6.0,53,0.00,,,0.00,meteohub,2013-11-28 22:47:00,
2013-11-28 12:52:00,81.1,62.4,28.79,West,270,7.0,7.0,53,0.00,,,0.00,meteohub,2013-11-28 22:52:00,
2013-11-28 12:57:00,80.8,62.1,28.79,West,270,4.0,7.0,53,0.00,,,0.00,meteohub,2013-11-28 22:57:00,
2013-11-28 13:02:00,80.8,63.1,28.79,SW,225,3.0,7.0,55,0.00,,,0.00,meteohub,2013-11-28 23:02:00,
2013-11-28 13:07:00,80.4,62.2,28.79,West,270,5.0,7.0,54,0.00,,,0.00,meteohub,2013-11-28 23:07:00,
2013-11-28 13:12:00,80.2,62.6,28.78,North,0,4.0,6.0,55,0.00,,,0.00,meteohub,2013-11-28 23:12:00,
2013-11-28 13:17:00,80.6,63.5,28.78,West,270,4.0,6.0,56,0.00,,,0.00,meteohub,2013-11-28 23:17:00,
2013-11-28 13:22:00,80.4,62.2,28.78,West,270,7.0,7.0,54,0.00,,,0.00,meteohub,2013-11-28 23:22:00,
2013-11-28 13:27:00,80.1,63.5,28.78,SW,225,5.0,7.0,57,0.00,,,0.00,meteohub,2013-11-28 23:27:00,
2013-11-28 13:32:00,79.5,63.0,28.78,NW,315,4.0,8.0,57,0.00,,,0.00,meteohub,2013-11-28 23:32:00,
2013-11-28 13:37:00,79.5,62.4,28.78,West,270,4.0,8.0,56,0.00,,,0.00,meteohub,2013-11-28 23:37:00,
2013-11-28 13:42:00,79.5,62.4,28.78,West,270,5.0,8.0,56,0.00,,,0.00,meteohub,2013-11-28 23:42:00,
2013-11-28 13:47:00,79.9,62.2,28.78,West,270,4.0,7.0,55,0.00,,,0.00,meteohub,2013-11-28 23:47:00,
2013-11-28 13:52:00,80.4,62.2,28.77,West,270,4.0,6.0,54,0.00,,,0.00,meteohub,2013-11-28 23:52:00,
2013-11-28 13:57:00,80.6,61.9,28.77,West,270,5.0,5.0,53,0.00,,,0.00,meteohub,2013-11-28 23:57:00,
2013-11-28 14:02:00,80.8,61.5,28.76,North,0,4.0,8.0,52,0.00,,,0.00,meteohub,2013-11-29 00:02:00,
2013-11-28 14:07:00,81.5,62.2,28.77,NW,315,3.0,8.0,52,0.00,,,0.00,meteohub,2013-11-29 00:07:00,
2013-11-28 14:12:00,81.5,62.8,28.76,NW,315,8.0,8.0,53,0.00,,,0.00,meteohub,2013-11-29 00:12:00,
2013-11-28 14:17:00,81.7,63.0,28.76,NW,315,3.0,8.0,53,0.00,,,0.00,meteohub,2013-11-29 00:17:00,
2013-11-28 14:22:00,81.3,63.7,28.77,NW,315,4.0,8.0,55,0.00,,,0.00,meteohub,2013-11-29 00:22:00,
2013-11-28 14:27:00,80.8,64.6,28.76,West,270,5.0,8.0,58,0.00,,,0.00,meteohub,2013-11-29 00:27:00,
2013-11-28 14:32:00,80.6,63.5,28.77,West,270,4.0,8.0,56,0.00,,,0.00,meteohub,2013-11-29 00:32:00,
2013-11-28 14:37:00,80.6,64.0,28.77,West,270,3.0,8.0,57,0.00,,,0.00,meteohub,2013-11-29 00:37:00,
2013-11-28 14:42:00,79.9,64.2,28.77,North,0,7.0,8.0,59,0.00,,,0.00,meteohub,2013-11-29 00:42:00,
2013-11-28 14:47:00,78.8,64.2,28.76,NW,315,4.0,8.0,61,0.00,,,0.00,meteohub,2013-11-29 00:47:00,
2013-11-28 14:52:00,78.1,64.4,28.77,NW,315,4.0,8.0,63,0.00,,,0.00,meteohub,2013-11-29 00:52:00,
2013-11-28 14:57:00,77.5,63.5,28.77,NW,315,4.0,8.0,62,0.00,,,0.00,meteohub,2013-11-29 00:57:00,
2013-11-28 15:02:00,77.2,62.6,28.77,SW,225,2.0,8.0,61,0.00,,,0.00,meteohub,2013-11-29 01:02:00,
2013-11-28 15:07:00,77.7,63.1,28.77,West,270,3.0,6.0,61,0.00,,,0.00,meteohub,2013-11-29 01:07:00,
2013-11-28 15:12:00,77.4,63.3,28.77,SW,225,2.0,6.0,62,0.00,,,0.00,meteohub,2013-11-29 01:12:00,
2013-11-28 15:17:00,76.8,63.7,28.77,West,270,3.0,6.0,64,0.00,,,0.00,meteohub,2013-11-29 01:17:00,
2013-11-28 15:22:00,76.5,63.3,28.77,NW,315,2.0,6.0,64,0.00,,,0.00,meteohub,2013-11-29 01:22:00,
2013-11-28 15:27:00,76.3,63.7,28.77,SW,225,4.0,4.0,65,0.00,,,0.00,meteohub,2013-11-29 01:27:00,
2013-11-28 15:32:00,75.7,63.5,28.77,NW,315,1.0,5.0,66,0.00,,,0.00,meteohub,2013-11-29 01:32:00,
2013-11-28 15:37:00,75.4,64.0,28.77,West,270,2.0,5.0,68,0.00,,,0.00,meteohub,2013-11-29 01:37:00,
2013-11-28 15:42:00,75.0,64.9,28.77,North,0,2.0,5.0,71,0.00,,,0.00,meteohub,2013-11-29 01:42:00,
2013-11-28 15:47:00,74.5,64.9,28.77,NW,315,3.0,4.0,72,0.00,,,0.00,meteohub,2013-11-29 01:47:00,
2013-11-28 15:52:00,74.3,65.1,28.78,NW,315,4.0,4.0,73,0.00,,,0.00,meteohub,2013-11-29 01:52:00,
2013-11-28 15:57:00,74.3,65.5,28.77,West,270,2.0,4.0,74,0.00,,,0.00,meteohub,2013-11-29 01:57:00,
2013-11-28 16:02:00,74.5,65.7,28.78,SW,225,3.0,4.0,74,0.00,,,0.00,meteohub,2013-11-29 02:02:00,
2013-11-28 16:07:00,74.5,65.7,28.78,NW,315,2.0,4.0,74,0.00,,,0.00,meteohub,2013-11-29 02:07:00,
2013-11-28 16:12:00,74.5,65.7,28.78,West,270,2.0,4.0,74,0.00,,,0.00,meteohub,2013-11-29 02:12:00,
2013-11-28 16:17:00,74.3,65.8,28.78,NW,315,2.0,4.0,75,0.00,,,0.00,meteohub,2013-11-29 02:17:00,
2013-11-28 16:22:00,74.1,65.7,28.79,NW,315,3.0,4.0,75,0.00,,,0.00,meteohub,2013-11-29 02:22:00,
2013-11-28 16:27:00,73.8,65.7,28.78,West,270,3.0,4.0,76,0.00,,,0.00,meteohub,2013-11-29 02:27:00,
2013-11-28 16:32:00,73.6,65.8,28.78,NE,45,4.0,4.0,77,0.00,,,0.00,meteohub,2013-11-29 02:32:00,
2013-11-28 16:37:00,73.6,65.8,28.79,West,270,2.0,4.0,77,0.00,,,0.00,meteohub,2013-11-29 02:37:00,
2013-11-28 16:42:00,73.4,66.2,28.79,West,270,2.0,4.0,78,0.00,,,0.00,meteohub,2013-11-29 02:42:00,
2013-11-28 16:47:00,73.0,66.6,28.79,West,270,3.0,4.0,80,0.00,,,0.00,meteohub,2013-11-29 02:47:00,
2013-11-28 16:52:00,72.9,66.7,28.79,NW,315,4.0,4.0,81,0.00,,,0.00,meteohub,2013-11-29 02:52:00,
2013-11-28 16:57:00,72.7,66.9,28.80,NW,315,3.0,4.0,82,0.00,,,0.00,meteohub,2013-11-29 02:57:00,
2013-11-28 17:02:00,72.5,67.1,28.79,West,270,2.0,4.0,83,0.00,,,0.00,meteohub,2013-11-29 03:02:00,
2013-11-28 17:07:00,72.3,67.6,28.80,NW,315,3.0,4.0,85,0.00,,,0.00,meteohub,2013-11-29 03:07:00,
2013-11-28 17:12:00,72.1,67.5,28.79,NW,315,1.0,4.0,85,0.00,,,0.00,meteohub,2013-11-29 03:12:00,
2013-11-28 17:17:00,72.1,67.6,28.79,NW,315,3.0,4.0,86,0.00,,,0.00,meteohub,2013-11-29 03:17:00,
2013-11-28 17:22:00,72.0,67.8,28.80,North,0,2.0,3.0,87,0.00,,,0.00,meteohub,2013-11-29 03:22:00,
2013-11-28 17:27:00,71.8,68.0,28.79,NW,315,2.0,3.0,88,0.00,,,0.00,meteohub,2013-11-29 03:27:00,
2013-11-28 17:32:00,71.6,67.8,28.80,NW,315,2.0,4.0,88,0.00,,,0.00,meteohub,2013-11-29 03:32:00,
2013-11-28 17:37:00,71.4,67.6,28.80,West,270,2.0,4.0,88,0.00,,,0.00,meteohub,2013-11-29 03:37:00,
2013-11-28 17:42:00,71.2,67.5,28.81,West,270,2.0,4.0,88,0.00,,,0.00,meteohub,2013-11-29 03:42:00,
2013-11-28 17:47:00,71.1,67.3,28.81,North,0,2.0,4.0,88,0.00,,,0.00,meteohub,2013-11-29 03:47:00,
2013-11-28 17:52:00,71.1,67.3,28.82,West,270,2.0,4.0,88,0.00,,,0.00,meteohub,2013-11-29 03:52:00,
2013-11-28 17:57:00,71.1,67.3,28.82,West,270,1.0,4.0,88,0.00,,,0.00,meteohub,2013-11-29 03:57:00,
2013-11-28 18:02:00,71.1,66.9,28.82,North,0,0.0,3.0,87,0.00,,,0.00,meteohub,2013-11-29 04:02:00,
2013-11-28 18:07:00,70.9,66.7,28.82,NW,315,1.0,3.0,87,0.00,,,0.00,meteohub,2013-11-29 04:07:00,
2013-11-28 18:12:00,70.9,66.6,28.82,West,270,1.0,3.0,86,0.00,,,0.00,meteohub,2013-11-29 04:12:00,
2013-11-28 18:17:00,70.9,66.6,28.83,NW,315,1.0,2.0,86,0.00,,,0.00,meteohub,2013-11-29 04:17:00,
2013-11-28 18:22:00,70.9,66.6,28.83,NW,315,0.0,2.0,86,0.00,,,0.00,meteohub,2013-11-29 04:22:00,
2013-11-28 18:27:00,70.9,66.6,28.82,NE,45,1.0,1.0,86,0.00,,,0.00,meteohub,2013-11-29 04:27:00,
2013-11-28 18:32:00,70.9,66.2,28.83,NW,315,1.0,1.0,85,0.00,,,0.00,meteohub,2013-11-29 04:32:00,
2013-11-28 18:37:00,70.9,66.2,28.84,North,0,1.0,1.0,85,0.00,,,0.00,meteohub,2013-11-29 04:37:00,
2013-11-28 18:42:00,70.7,65.7,28.84,North,0,1.0,1.0,84,0.00,,,0.00,meteohub,2013-11-29 04:42:00,
2013-11-28 18:47:00,70.7,65.7,28.84,North,0,0.0,1.0,84,0.00,,,0.00,meteohub,2013-11-29 04:47:00,
2013-11-28 18:52:00,70.7,65.7,28.84,North,0,0.0,1.0,84,0.00,,,0.00,meteohub,2013-11-29 04:52:00,
2013-11-28 18:57:00,70.7,66.0,28.84,North,0,0.0,1.0,85,0.00,,,0.00,meteohub,2013-11-29 04:57:00,
2013-11-28 19:01:00,70.5,65.8,28.84,North,0,0.0,1.0,85,0.00,,,0.00,meteohub,2013-11-29 05:01:00,
2013-11-28 19:02:00,70.5,65.8,28.84,North,0,0.0,1.0,85,0.00,,,0.00,meteohub,2013-11-29 05:02:00,
2013-11-28 19:03:00,70.5,65.8,28.84,North,0,0.0,1.0,85,0.00,,,0.00,meteohub,2013-11-29 05:03:00,
2013-11-28 19:08:00,70.5,65.8,28.85,NE,45,0.0,1.0,85,0.00,,,0.00,meteohub,2013-11-29 05:08:00,
2013-11-28 19:13:00,70.5,65.8,28.85,NE,45,0.0,1.0,85,0.00,,,0.00,meteohub,2013-11-29 05:13:00,
2013-11-28 19:18:00,70.3,65.3,28.85,NE,45,0.0,1.0,84,0.00,,,0.00,meteohub,2013-11-29 05:18:00,
2013-11-28 19:23:00,70.3,65.7,28.85,NE,45,0.0,0.0,85,0.00,,,0.00,meteohub,2013-11-29 05:23:00,
2013-11-28 19:28:00,70.3,65.3,28.86,NE,45,0.0,0.0,84,0.00,,,0.00,meteohub,2013-11-29 05:28:00,
2013-11-28 19:33:00,70.3,65.7,28.86,East,90,0.0,0.0,85,0.00,,,0.00,meteohub,2013-11-29 05:33:00,
2013-11-28 19:38:00,70.2,65.5,28.87,East,90,0.0,0.0,85,0.00,,,0.00,meteohub,2013-11-29 05:38:00,
2013-11-28 19:43:00,70.2,65.5,28.87,East,90,0.0,0.0,85,0.00,,,0.00,meteohub,2013-11-29 05:43:00,
2013-11-28 19:48:00,70.0,65.3,28.87,East,90,0.0,1.0,85,0.00,,,0.00,meteohub,2013-11-29 05:48:00,
2013-11-28 19:53:00,69.8,65.1,28.87,East,90,0.0,1.0,85,0.00,,,0.00,meteohub,2013-11-29 05:53:00,
2013-11-28 19:58:00,69.6,65.3,28.87,East,90,0.0,1.0,86,0.00,,,0.00,meteohub,2013-11-29 05:58:00,
2013-11-28 20:03:00,69.3,64.9,28.87,East,90,0.0,0.0,86,0.00,,,0.00,meteohub,2013-11-29 06:03:00,
2013-11-28 20:08:00,68.9,64.9,28.87,East,90,0.0,0.0,87,0.00,,,0.00,meteohub,2013-11-29 06:08:00,
2013-11-28 20:13:00,68.7,64.9,28.87,East,90,0.0,0.0,88,0.00,,,0.00,meteohub,2013-11-29 06:13:00,
2013-11-28 20:19:00,68.4,64.9,28.87,East,90,0.0,0.0,89,0.00,,,0.00,meteohub,2013-11-29 06:19:00,
2013-11-28 20:24:00,68.2,65.1,28.88,East,90,0.0,0.0,90,0.00,,,0.00,meteohub,2013-11-29 06:24:00,
2013-11-28 20:29:00,68.0,65.3,28.88,East,90,0.0,0.0,91,0.00,,,0.00,meteohub,2013-11-29 06:29:00,
2013-11-28 20:34:00,68.0,65.3,28.88,East,90,0.0,0.0,91,0.00,,,0.00,meteohub,2013-11-29 06:34:00,
2013-11-28 20:39:00,68.0,65.7,28.88,East,90,0.0,0.0,92,0.00,,,0.00,meteohub,2013-11-29 06:39:00,
2013-11-28 20:44:00,68.0,65.8,28.88,East,90,0.0,0.0,93,0.00,,,0.00,meteohub,2013-11-29 06:44:00,
2013-11-28 20:49:00,68.2,66.4,28.89,East,90,0.0,0.0,94,0.00,,,0.00,meteohub,2013-11-29 06:49:00,
2013-11-28 20:54:00,68.4,66.6,28.89,East,90,0.0,0.0,94,0.00,,,0.00,meteohub,2013-11-29 06:54:00,
2013-11-28 20:59:00,68.4,66.6,28.89,NE,45,0.0,0.0,94,0.00,,,0.00,meteohub,2013-11-29 06:59:00,
2013-11-28 21:04:00,68.4,66.6,28.90,East,90,1.0,0.0,94,0.00,,,0.00,meteohub,2013-11-29 07:04:00,
2013-11-28 21:09:00,68.4,66.6,28.89,East,90,0.0,0.0,94,0.00,,,0.00,meteohub,2013-11-29 07:09:00,
2013-11-28 21:14:00,68.4,66.2,28.89,East,90,0.0,1.0,93,0.00,,,0.00,meteohub,2013-11-29 07:14:00,
2013-11-28 21:19:00,68.4,66.2,28.90,East,90,0.0,1.0,93,0.00,,,0.00,meteohub,2013-11-29 07:19:00,
2013-11-28 21:24:00,68.4,66.2,28.90,East,90,0.0,0.0,93,0.00,,,0.00,meteohub,2013-11-29 07:24:00,
2013-11-28 21:29:00,68.4,66.2,28.90,East,90,0.0,0.0,93,0.00,,,0.00,meteohub,2013-11-29 07:29:00,
2013-11-28 21:34:00,68.4,66.2,28.90,East,90,0.0,0.0,93,0.00,,,0.00,meteohub,2013-11-29 07:34:00,
2013-11-28 21:40:00,68.4,66.2,28.89,East,90,0.0,0.0,93,0.00,,,0.00,meteohub,2013-11-29 07:40:00,
2013-11-28 21:45:00,68.4,66.0,28.89,NE,45,0.0,0.0,92,0.00,,,0.00,meteohub,2013-11-29 07:45:00,
2013-11-28 21:50:00,68.2,65.8,28.89,NE,45,0.0,1.0,92,0.00,,,0.00,meteohub,2013-11-29 07:50:00,
2013-11-28 21:57:00,68.0,65.7,28.89,NE,45,0.0,1.0,92,0.00,,,0.00,meteohub,2013-11-29 07:57:00,
2013-11-28 22:02:00,67.8,65.7,28.90,NE,45,0.0,1.0,93,0.00,,,0.00,meteohub,2013-11-29 08:02:00,
2013-11-28 22:07:00,67.8,65.7,28.90,NE,45,0.0,1.0,93,0.00,,,0.00,meteohub,2013-11-29 08:07:00,
2013-11-28 22:12:00,67.6,65.5,28.90,NE,45,0.0,0.0,93,0.00,,,0.00,meteohub,2013-11-29 08:12:00,
2013-11-28 22:17:00,67.6,65.5,28.90,NE,45,0.0,0.0,93,0.00,,,0.00,meteohub,2013-11-29 08:17:00,
2013-11-28 22:23:00,67.6,65.8,28.90,NE,45,0.0,1.0,94,0.00,,,0.00,meteohub,2013-11-29 08:23:00,
2013-11-28 22:28:00,67.6,65.8,28.90,NE,45,0.0,1.0,94,0.00,,,0.00,meteohub,2013-11-29 08:28:00,
2013-11-28 22:33:00,67.6,65.8,28.90,NE,45,0.0,0.0,94,0.00,,,0.00,meteohub,2013-11-29 08:33:00,
2013-11-28 22:38:00,67.6,65.8,28.90,NE,45,0.0,0.0,94,0.00,,,0.00,meteohub,2013-11-29 08:38:00,
2013-11-28 22:43:00,67.6,65.8,28.90,NE,45,0.0,0.0,94,0.00,,,0.00,meteohub,2013-11-29 08:43:00,
2013-11-28 22:48:00,67.6,65.8,28.90,NE,45,0.0,0.0,94,0.00,,,0.00,meteohub,2013-11-29 08:48:00,
2013-11-28 22:53:00,67.8,65.7,28.90,NE,45,1.0,1.0,93,0.00,,,0.00,meteohub,2013-11-29 08:53:00,
2013-11-28 22:58:00,67.8,65.5,28.90,East,90,1.0,1.0,92,0.00,,,0.00,meteohub,2013-11-29 08:58:00,
2013-11-28 23:05:00,67.6,64.9,28.89,East,90,1.0,1.0,91,0.00,,,0.00,meteohub,2013-11-29 09:05:00,
2013-11-28 23:16:00,67.3,64.2,28.89,NE,45,1.0,3.0,90,0.00,,,0.00,meteohub,2013-11-29 09:16:00,
2013-11-28 23:17:00,67.3,64.2,28.89,East,90,1.0,3.0,90,0.00,,,0.00,meteohub,2013-11-29 09:17:00,
2013-11-28 23:31:00,66.9,63.5,28.88,NE,45,1.0,1.0,89,0.00,,,0.00,meteohub,2013-11-29 09:31:00,
2013-11-28 23:36:00,66.9,63.3,28.88,NE,45,1.0,1.0,88,0.00,,,0.00,meteohub,2013-11-29 09:36:00,
2013-11-28 23:42:00,66.9,63.3,28.88,East,90,0.0,2.0,88,0.00,,,0.00,meteohub,2013-11-29 09:42:00,
2013-11-28 23:47:00,66.7,62.8,28.88,NE,45,2.0,2.0,87,0.00,,,0.00,meteohub,2013-11-29 09:47:00,
2013-11-28 23:52:00,66.7,62.4,28.88,NE,45,1.0,2.0,86,0.00,,,0.00,meteohub,2013-11-29 09:52:00,
2013-11-28 23:57:00,66.9,62.2,28.88,NE,45,0.0,2.0,85,0.00,,,0.00,meteohub,2013-11-29 09:57:00,